Location: Clanezzo
(45.7500°N, 9.6000°E)
Time: 09:33:57
(UTC+00:00)

CUTE-I - Pass Details

Date: 10 December 2023
Orbit: 807 x 822 km, 98.7° (Epoch: 23 February)

Event Time Altitude Azimuth Distance (km) Brightness Sun altitude
Rises 18:09:33 0° 212° (SSW) 3,317 ? -25.6°
Reaches altitude 10° 18:12:49 10° 233° (SW) 2,395 ? -26.2°
Maximum altitude 18:16:01 16° 271° (W) 2,005 ? -26.7°
Drops below altitude 10° 18:19:15 10° 309° (NW) 2,412 ? -27.3°
Sets 18:22:35 0° 330° (NNW) 3,354 ? -27.9°
